Weather History for Covington, KY

Change the Weather History Date:

Saturday, March 2, 2013

  Actual Average Record
Temperature  
Mean Temperature 28 °F 39 °F  
Max Temperature 30 °F 48 °F 78 °F (1992)
Min Temperature 26 °F 30 °F -5 °F (1980)
Degree Days  
Heating Degree Days 37 26  
Month to date heating degree days 69 53  
Since 1 July heating degree days 3779 3880  
Cooling Degree Days 0 0  
Month to date cooling degree days 0 0  
Year to date cooling degree days 0 0  
Moisture  
Dew Point 20 °F    
Average Humidity 72    
Maximum Humidity 75    
Minimum Humidity 68    
Precipitation  
Precipitation T in 0.10 in 2.00 in (1945)
Month to date precipitation 0.06 0.21  
Year to date precipitation 5.66 6.02  
Snow  
Snow 0.10 in 0.20 in 2.50 in (1960)
Month to date snowfall 0.4 0.3  
Since 1 July snowfall 16.8 18.9  
Snow Depth 0.00 in    
Sea Level Pressure  
Sea Level Pressure 30.06 in    
Wind  
Wind Speed 9 mph (NNW)    
Max Wind Speed 15 mph    
Max Gust Speed 18 mph    
Visibility 8 miles    
Events Snow    
T = Trace of Precipitation, MM = Missing Value Source: NWS Daily Summary

Daily Weather History Graph

Daily Weather History Graph

Search for Another Location

Airport:

Trip Planner

Search our weather history database for the weather conditions in past years. The results will help you decide how hot, cold, wet, or windy it might be!

Date:

Astronomy

Mar. 02, 2013 Rise Set
Actual Time 7:09 AM EST 6:32 PM EST
Civil Twilight 6:42 AM EST 6:59 PM EST
Nautical Twilight 6:11 AM EST 7:30 PM EST
Astronomical Twilight 5:40 AM EST 8:01 PM EST
Moon No Moon Rise 9:39 AM EST (3/2)
Length of Visible Light 12h 16m
Length of Day
11h 23m
Waning Gibbous, 74% of the Moon is Illuminated
Mar 2
Waning Gibbous
Mar 4
Last Quarter
Mar 11
New
Mar 19
First Quarter
Mar 27
Full

Hourly Weather History & Observations

Time (EST) Temp. Windchill Dew Point Humidity Pressure Visibility Wind Dir Wind Speed Gust Speed Precip Events Conditions
12:37 AM 30.2 °F 20.8 °F 21.2 °F 69% 30.02 in 10.0 mi NNE 11.5 mph - N/A   Overcast
12:52 AM 30.0 °F 22.4 °F 21.9 °F 72% 30.04 in 10.0 mi North 8.1 mph - N/A   Overcast
1:00 AM 28.4 °F 19.1 °F 21.2 °F 74% 30.02 in 10.0 mi North 10.4 mph - N/A   Overcast
1:39 AM 28.4 °F 19.1 °F 21.2 °F 74% 30.02 in 10.0 mi North 10.4 mph - N/A   Overcast
1:52 AM 28.9 °F 19.2 °F 21.0 °F 72% 30.04 in 10.0 mi NNE 11.5 mph - N/A   Overcast
2:52 AM 28.9 °F 21.1 °F 21.0 °F 72% 30.04 in 10.0 mi North 8.1 mph - N/A   Overcast
3:52 AM 28.0 °F 18.6 °F 21.0 °F 75% 30.03 in 10.0 mi North 10.4 mph - N/A   Overcast
4:52 AM 28.0 °F 17.5 °F 19.9 °F 72% 30.02 in 10.0 mi North 12.7 mph - N/A   Overcast
5:52 AM 27.0 °F 17.3 °F 19.9 °F 75% 30.04 in 10.0 mi North 10.4 mph - N/A   Overcast
6:52 AM 27.0 °F 18.7 °F 19.9 °F 75% 30.04 in 10.0 mi North 8.1 mph - N/A   Overcast
7:52 AM 27.0 °F 16.1 °F 19.9 °F 75% 30.06 in 10.0 mi NNE 12.7 mph - N/A   Overcast
8:52 AM 27.0 °F 16.7 °F 19.9 °F 75% 30.07 in 8.0 mi North 11.5 mph - 0.00 in Snow Light Snow
9:52 AM 27.0 °F 18.7 °F 18.0 °F 69% 30.08 in 5.0 mi North 8.1 mph - 0.00 in Snow Light Snow
10:52 AM 27.0 °F 18.7 °F 19.9 °F 75% 30.08 in 3.0 mi North 8.1 mph - 0.00 in Snow Light Snow
11:52 AM 27.0 °F 19.5 °F 19.9 °F 75% 30.09 in 7.0 mi North 6.9 mph - 0.00 in   Overcast
12:28 PM 26.6 °F 19.1 °F 21.2 °F 80% 30.07 in 2.0 mi North 6.9 mph - 0.00 in Snow Light Snow
12:52 PM 27.0 °F 18.0 °F 21.9 °F 81% 30.08 in 2.0 mi NW 9.2 mph - 0.00 in Snow Light Snow
1:03 PM 26.6 °F 21.2 °F 21.2 °F 80% 30.05 in 5.0 mi North 4.6 mph - 0.00 in Snow Light Snow
1:52 PM 28.9 °F 20.4 °F 21.0 °F 72% 30.06 in 5.0 mi NNW 9.2 mph - 0.00 in   Haze
2:52 PM 28.9 °F 19.8 °F 21.0 °F 72% 30.06 in 8.0 mi NNW 10.4 mph - 0.00 in Snow Light Snow
3:52 PM 28.9 °F 18.6 °F 19.0 °F 67% 30.06 in 10.0 mi North 12.7 mph - 0.00 in   Overcast
4:52 PM 28.0 °F 18.6 °F 19.0 °F 69% 30.07 in 10.0 mi NNW 10.4 mph - N/A   Overcast
5:52 PM 28.0 °F 19.3 °F 19.9 °F 72% 30.08 in 8.0 mi NNW 9.2 mph - 0.00 in Snow Light Snow
6:52 PM 28.0 °F 20.0 °F 19.0 °F 69% 30.09 in 10.0 mi NNW 8.1 mph - 0.00 in   Overcast
8:52 PM 28.0 °F 24.2 °F 18.0 °F 66% 30.09 in 10.0 mi WNW 3.5 mph - 0.00 in   Overcast
9:52 PM 28.0 °F 24.2 °F 19.0 °F 69% 30.09 in 10.0 mi WSW 3.5 mph - N/A   Overcast
10:52 PM 28.0 °F 24.2 °F 19.9 °F 72% 30.09 in 10.0 mi WSW 3.5 mph - N/A   Overcast
11:52 PM 28.4 °F 24.6 °F 19.4 °F 69% 30.05 in 10.0 mi WSW 3.5 mph - N/A   Overcast